CW0927 Weather Reports


Display with metric or nautical units.
time (UTC)temp
F
wind
direction
speed
MPH
gust
MPH
rain 1hr
in
rain 24hr
in
rain mn
in
humidity
%
barometer
mb
20260902025827 79 66 0.0 0.0 0.00 0.14 0.14 90 1018.3
20260902025326 79 66 0.0 0.0 0.00 0.14 0.14 90 1018.4
20260902024826 79 66 0.0 0.0 0.00 0.14 0.14 90 1018.4
20260902024326 79 66 0.0 0.0 0.00 0.14 0.14 89 1018.4
20260902023829 79 66 0.0 0.0 0.00 0.14 0.14 89 1018.4
20260902023334 79 66 0.0 0.0 0.00 0.14 0.14 89 1018.4
20260902022900 79 66 0.0 0.0 0.00 0.14 0.14 89 1018.4
20260902022323 79 66 0.0 0.0 0.00 0.14 0.14 89 1018.5
20260902021827 79 66 0.0 0.0 0.00 0.14 0.14 89 1018.5
20260902021331 79 66 0.0 0.0 0.00 0.14 0.14 89 1018.5
20260902020835 79 66 0.0 0.0 0.00 0.14 0.14 89 1018.5
20260902020346 79 66 0.0 0.0 0.00 0.14 0.14 89 1018.4
20260902015847 79 66 0.0 1.0 0.00 0.14 0.14 89 1018.3
20260902015330 79 66 0.0 1.0 0.00 0.14 0.14 89 1018.3
20260902014834 79 66 0.0 0.0 0.00 0.14 0.14 89 1018.3
20260902014406 79 66 0.0 0.0 0.00 0.14 0.14 89 1018.3
20260902013849 79 66 0.0 0.0 0.00 0.14 0.14 89 1018.2
20260902013334 79 66 0.0 0.0 0.00 0.14 0.14 89 1018.2
20260902012833 79 66 0.0 0.0 0.00 0.14 0.14 89 1018.1
20260902012336 79 66 0.0 1.0 0.00 0.14 0.14 89 1018.1
20260902011840 80 66 0.0 1.0 0.00 0.14 0.14 88 1018.0
20260902011324 80 43 0.0 0.0 0.00 0.14 0.14 88 1018.0
20260902010855 80 43 0.0 0.0 0.00 0.14 0.14 88 1018.0
20260902010334 80 43 0.0 0.0 0.00 0.14 0.14 88 1018.0
20260902005833 80 43 0.0 0.0 0.00 0.14 0.14 88 1018.1
20260902005342 80 43 0.0 0.0 0.00 0.14 0.14 88 1018.0
20260902004846 80 43 0.0 0.0 0.00 0.14 0.14 87 1018.0
20260902004329 80 43 0.0 0.0 0.00 0.14 0.14 87 1018.0
20260902003833 80 43 0.0 0.0 0.00 0.14 0.14 87 1018.0
20260902003339 80 43 0.0 0.0 0.00 0.14 0.14 86 1017.9
20260902002835 80 43 0.0 0.0 0.00 0.14 0.14 86 1017.9
20260902002340 81 43 0.0 1.0 0.00 0.14 0.14 86 1017.9
20260902001824 81 43 0.0 1.0 0.00 0.14 0.14 86 1017.8
20260902001328 81 43 0.0 1.0 0.00 0.14 0.14 85 1017.8
20260902000859 81 43 0.0 1.0 0.00 0.14 0.14 85 1017.7
20260902000344 81 44 0.0 2.0 0.00 0.14 0.14 85 1017.7
20260901235823 81 80 0.0 2.0 0.00 0.14 0.14 85 1017.7
20260901235357 81 80 0.0 2.0 0.00 0.14 0.14 84 1017.8
20260901234839 81 89 0.0 2.0 0.00 0.14 0.14 85 1017.8
20260901234343 82 90 0.0 1.0 0.00 0.14 0.14 85 1017.8
20260901233848 82 90 0.0 1.0 0.00 0.14 0.14 84 1017.7
20260901233333 82 90 0.0 1.0 0.00 0.14 0.14 84 1017.8
20260901232834 82 90 0.0 1.0 0.00 0.14 0.14 84 1017.9
20260901232332 82 91 0.0 1.0 0.00 0.14 0.14 84 1017.8
20260901231835 82 59 0.0 1.0 0.00 0.14 0.14 84 1017.6
20260901231407 82 59 0.0 1.0 0.00 0.14 0.14 84 1017.5
20260901230825 82 59 0.0 0.0 0.00 0.14 0.14 84 1017.5
20260901230329 82 59 0.0 2.0 0.00 0.14 0.14 84 1017.4
20260901225838 82 59 0.0 2.0 0.00 0.17 0.14 83 1017.4
20260901225342 82 53 1.0 2.0 0.00 0.17 0.14 83 1017.5
20260901224824 83 355 0.0 0.0 0.00 0.17 0.14 83 1017.4
20260901224330 83 355 0.0 1.0 0.00 0.17 0.14 83 1017.3
20260901223833 83 355 0.0 1.0 0.00 0.17 0.14 83 1017.3
20260901223346 83 355 0.0 1.0 0.00 0.17 0.14 83 1017.3
20260901222847 83 349 0.0 1.0 0.00 0.17 0.14 82 1017.4
20260901222333 84 349 0.0 1.0 0.00 0.17 0.14 82 1017.5
20260901221905 84 304 0.0 3.0 0.00 0.17 0.14 82 1017.4
20260901221349 84 5 0.0 3.0 0.00 0.17 0.14 82 1017.3
20260901220831 84 135 0.0 1.0 0.00 0.17 0.14 82 1017.2
20260901220336 85 5 0.0 1.0 0.00 0.17 0.14 82 1017.0
20260901215838 85 24 0.0 2.0 0.00 0.23 0.14 82 1017.0
20260901215323 85 11 0.0 2.0 0.00 0.23 0.14 82 1017.0
20260901214829 85 35 0.0 2.0 0.00 0.23 0.14 82 1017.0
20260901214401 85 75 1.0 2.0 0.00 0.23 0.14 82 1016.8
20260901213824 85 14 0.0 2.0 0.00 0.23 0.14 82 1016.7
20260901213329 86 74 0.0 2.0 0.00 0.23 0.14 83 1016.7
20260901212831 86 87 0.0 4.0 0.00 0.23 0.14 83 1016.7
20260901212329 86 88 2.0 4.0 0.00 0.23 0.14 84 1016.9
20260901211900 85 122 0.0 2.0 0.00 0.23 0.14 85 1017.0
20260901211324 85 111 0.0 2.0 0.00 0.23 0.14 86 1017.0
20260901210827 84 28 0.0 2.0 0.00 0.23 0.14 86 1017.0
20260901210333 84 83 0.0 1.0 0.00 0.23 0.14 86 1017.0
20260901205834 84 83 0.0 2.0 0.00 0.25 0.14 86 1017.0
20260901205336 84 96 0.0 2.0 0.00 0.25 0.14 87 1017.0
20260901204837 84 20 0.0 1.0 0.00 0.25 0.14 89 1017.0
20260901204337 83 21 0.0 1.0 0.00 0.25 0.14 90 1017.1
20260901203837 83 21 0.0 1.0 0.00 0.25 0.14 91 1017.0
20260901203338 82 22 0.0 1.0 0.01 0.25 0.14 91 1017.1
20260901202835 82 22 0.0 1.0 0.02 0.25 0.14 91 1017.2
20260901202336 81 22 0.0 1.0 0.06 0.25 0.14 91 1017.2
20260901201832 81 22 0.0 0.0 0.09 0.25 0.14 91 1017.3
20260901201401 81 22 0.0 0.0 0.13 0.25 0.14 91 1017.3
20260901200824 80 22 0.0 1.0 0.13 0.25 0.14 91 1017.3
20260901200326 80 22 0.0 0.0 0.13 0.25 0.14 90 1017.4
20260901195825 80 22 0.0 0.0 0.13 0.25 0.14 90 1017.4
20260901195328 80 22 0.0 1.0 0.13 0.25 0.14 90 1017.3
20260901194859 80 22 0.0 1.0 0.13 0.25 0.14 90 1017.4
20260901194341 80 22 0.0 1.0 0.13 0.25 0.14 89 1017.3
20260901193825 80 22 0.0 1.0 0.13 0.25 0.14 89 1017.5
20260901193329 80 355 0.0 2.0 0.12 0.24 0.13 88 1017.5
20260901192900 80 67 0.0 4.0 0.11 0.23 0.12 87 1017.7
20260901192341 81 92 1.0 4.0 0.07 0.19 0.08 86 1017.9
20260901191838 82 74 1.0 7.0 0.03 0.15 0.04 86 1017.9
20260901191340 82 5 2.0 7.0 0.00 0.12 0.01 85 1018.0
20260901190822 83 78 1.0 5.0 0.00 0.12 0.01 84 1018.1
20260901190334 83 73 0.0 5.0 0.00 0.12 0.01 83 1018.0
20260901185836 84 75 1.0 8.0 0.00 0.12 0.01 81 1018.1
20260901185339 84 78 2.0 8.0 0.00 0.12 0.01 79 1018.1
20260901184823 85 81 2.0 6.0 0.00 0.12 0.01 78 1018.0
20260901184326 85 45 1.0 5.0 0.00 0.12 0.01 77 1018.0
20260901183830 86 113 3.0 6.0 0.00 0.12 0.01 76 1018.1
20260901183342 87 128 1.0 4.0 0.00 0.12 0.01 76 1018.1
20260901182843 87 86 2.0 4.0 0.00 0.12 0.01 76 1018.3
20260901182347 87 22 0.0 3.0 0.00 0.12 0.01 76 1018.4
20260901181847 88 360 0.0 4.0 0.00 0.12 0.01 74 1018.4
20260901181344 88 42 1.0 5.0 0.00 0.12 0.01 73 1018.3
20260901180848 89 28 2.0 5.0 0.00 0.12 0.01 72 1018.3
20260901180352 89 355 1.0 7.0 0.00 0.12 0.01 76 1018.3
20260901175850 88 105 2.0 7.0 0.00 0.12 0.01 75 1018.3
20260901175332 88 55 1.0 4.0 0.00 0.12 0.01 76 1018.3
20260901174836 88 100 2.0 4.0 0.00 0.12 0.01 77 1018.5
20260901174336 87 329 1.0 3.0 0.00 0.12 0.01 80 1018.6
20260901173841 86 82 1.0 2.0 0.00 0.12 0.01 76 1018.7
20260901173344 87 59 0.0 2.0 0.00 0.12 0.01 74 1018.8
20260901172825 86 94 0.0 7.0 0.00 0.12 0.01 74 1018.8
20260901172329 87 92 2.0 7.0 0.00 0.12 0.01 74 1018.8
20260901171831 88 5 0.0 6.0 0.00 0.12 0.01 78 1018.9
20260901171334 90 5 1.0 6.0 0.00 0.12 0.01 76 1018.9
20260901170901 90 120 2.0 9.0 0.00 0.12 0.01 73 1018.9
20260901170344 90 36 1.0 9.0 0.00 0.12 0.01 73 1018.9
20260901165842 89 81 3.0 8.0 0.00 0.12 0.01 72 1018.8
20260901165323 91 76 4.0 11.0 0.00 0.12 0.01 70 1018.8
20260901164825 91 55 4.0 11.0 0.00 0.12 0.01 69 1018.8
20260901164328 91 93 1.0 3.0 0.00 0.12 0.01 69 1018.9
20260901163831 90 61 1.0 3.0 0.00 0.12 0.01 70 1019.0
20260901163333 90 332 1.0 3.0 0.00 0.12 0.01 72 1018.9
20260901162833 89 65 1.0 3.0 0.00 0.12 0.01 73 1018.8
20260901162342 89 74 1.0 3.0 0.00 0.12 0.01 73 1018.9
20260901161845 89 122 0.0 3.0 0.00 0.12 0.01 74 1018.9
20260901161345 90 61 2.0 3.0 0.00 0.12 0.01 74 1019.0
20260901160825 89 360 1.0 3.0 0.00 0.12 0.01 75 1019.0
20260901160327 89 34 1.0 4.0 0.00 0.12 0.01 75 1019.1
20260901155834 88 5 0.0 4.0 0.00 0.12 0.01 75 1019.2
20260901155333 88 59 1.0 4.0 0.00 0.12 0.01 76 1019.2
20260901154832 87 46 1.0 4.0 0.00 0.12 0.01 76 1019.3
20260901154401 87 344 0.0 2.0 0.00 0.12 0.01 77 1019.3
20260901153908 88 342 1.0 3.0 0.00 0.12 0.01 77 1019.3
20260901153347 87 28 1.0 4.0 0.00 0.12 0.01 78 1019.3
20260901152846 87 345 1.0 7.0 0.00 0.12 0.01 79 1019.3
20260901152342 87 348 2.0 7.0 0.00 0.12 0.01 80 1019.2
20260901151844 86 28 0.0 4.0 0.00 0.12 0.01 81 1019.3
20260901151328 86 257 1.0 4.0 0.00 0.12 0.01 82 1019.3
20260901150832 86 325 0.0 2.0 0.00 0.12 0.01 82 1019.3
20260901150336 86 5 0.0 3.0 0.00 0.12 0.01 82 1019.4
20260901145836 86 338 0.0 3.0 0.00 0.12 0.01 82 1019.3
20260901145340 86 300 1.0 3.0 0.00 0.12 0.01 82 1019.3
20260901144840 85 76 0.0 5.0 0.00 0.12 0.01 83 1019.3
20260901144341 85 17 1.0 5.0 0.00 0.12 0.01 86 1019.3
20260901143842 85 77 0.0 4.0 0.00 0.12 0.01 86 1019.2
20260901143345 84 5 1.0 3.0 0.00 0.12 0.01 87 1019.1
20260901142845 84 88 1.0 3.0 0.00 0.12 0.01 88 1019.1
20260901142323 83 68 1.0 3.0 0.00 0.12 0.01 89 1019.1
20260901141847 83 9 1.0 4.0 0.00 0.12 0.01 91 1019.1
20260901141354 82 85 1.0 4.0 0.00 0.12 0.01 93 1019.1
20260901140832 82 23 0.0 2.0 0.00 0.12 0.01 94 1019.0
20260901140402 81 360 0.0 3.0 0.00 0.12 0.01 95 1019.0
20260901135839 81 51 0.0 3.0 0.00 0.12 0.01 97 1018.9
20260901135341 80 30 1.0 2.0 0.00 0.12 0.01 97 1018.9
20260901134841 80 355 0.0 1.0 0.00 0.12 0.01 97 1018.9
20260901134322 80 350 0.0 1.0 0.00 0.12 0.01 97 1018.9
20260901133824 80 350 0.0 1.0 0.00 0.12 0.01 97 1019.0
20260901133325 79 350 0.0 1.0 0.00 0.12 0.01 97 1018.9
20260901132826 79 350 0.0 2.0 0.00 0.12 0.01 97 1019.0
20260901132323 79 355 0.0 2.0 0.00 0.12 0.01 97 1019.0
20260901131825 79 355 0.0 0.0 0.00 0.12 0.01 97 1019.0
20260901131325 78 355 0.0 1.0 0.00 0.12 0.01 97 1019.0
20260901130825 78 355 0.0 1.0 0.00 0.12 0.01 97 1018.9
20260901130329 78 355 0.0 1.0 0.00 0.12 0.01 97 1018.9
20260901125828 78 355 0.0 1.0 0.00 0.12 0.01 97 1018.9
20260901125328 77 355 0.0 1.0 0.00 0.12 0.01 97 1018.9
20260901124858 77 355 0.0 1.0 0.00 0.12 0.01 97 1018.8
20260901124323 77 351 0.0 1.0 0.00 0.12 0.01 97 1018.8
20260901123832 77 355 0.0 1.0 0.00 0.12 0.01 97 1018.8
20260901123336 77 355 0.0 1.0 0.00 0.12 0.01 97 1018.8
20260901122838 77 340 0.0 2.0 0.00 0.12 0.01 97 1018.7
20260901122338 77 340 0.0 2.0 0.00 0.12 0.01 97 1018.7
20260901121840 77 355 0.0 1.0 0.00 0.12 0.01 97 1018.5
20260901121345 76 355 0.0 0.0 0.00 0.12 0.01 97 1018.5
20260901120828 76 355 0.0 0.0 0.00 0.12 0.01 97 1018.5
20260901120331 76 355 0.0 0.0 0.00 0.12 0.01 97 1018.4
20260901115901 76 355 0.0 0.0 0.00 0.12 0.01 97 1018.4
20260901115322 76 355 0.0 0.0 0.00 0.12 0.01 96 1018.3
20260901114826 76 355 0.0 0.0 0.00 0.12 0.01 96 1018.3
20260901114358 76 355 0.0 0.0 0.00 0.12 0.01 96 1018.3
20260901113838 75 355 0.0 0.0 0.00 0.12 0.01 96 1018.2
20260901113339 75 355 0.0 0.0 0.00 0.12 0.01 96 1018.2
20260901112839 75 355 0.0 0.0 0.00 0.12 0.01 96 1018.2
20260901112336 75 355 0.0 0.0 0.00 0.12 0.01 96 1018.2
20260901111839 75 355 0.0 0.0 0.00 0.12 0.01 96 1018.2
20260901111344 75 355 0.0 0.0 0.00 0.12 0.01 96 1018.1
20260901110826 75 355 0.0 0.0 0.00 0.12 0.01 96 1017.9
20260901110330 75 355 0.0 0.0 0.00 0.12 0.01 96 1017.8
20260901105830 75 355 0.0 0.0 0.00 0.13 0.01 96 1017.8
20260901105332 75 355 0.0 0.0 0.00 0.13 0.01 96 1017.9
20260901104836 75 355 0.0 0.0 0.00 0.13 0.01 96 1017.9
20260901104338 75 355 0.0 0.0 0.00 0.13 0.01 96 1017.8
20260901103843 75 355 0.0 0.0 0.00 0.13 0.01 96 1017.6
20260901103326 75 355 0.0 0.0 0.00 0.13 0.01 96 1017.6
20260901102827 75 355 0.0 1.0 0.00 0.13 0.01 96 1017.5
20260901102329 75 355 0.0 1.0 0.00 0.13 0.01 96 1017.5
20260901101857 75 355 0.0 1.0 0.00 0.13 0.01 96 1017.5
20260901101340 75 355 0.0 1.0 0.00 0.13 0.01 96 1017.5
20260901100844 75 355 0.0 0.0 0.00 0.13 0.01 96 1017.5
20260901100347 75 355 0.0 0.0 0.00 0.13 0.01 96 1017.4
20260901095829 75 355 0.0 0.0 0.00 0.13 0.01 96 1017.4
20260901095334 75 355 0.0 0.0 0.00 0.13 0.01 96 1017.5
20260901094839 75 355 0.0 0.0 0.00 0.13 0.01 96 1017.5
20260901094343 75 355 0.0 0.0 0.00 0.13 0.01 95 1017.4
20260901093847 75 355 0.0 0.0 0.00 0.13 0.01 95 1017.4
20260901093330 75 355 0.0 0.0 0.00 0.13 0.01 95 1017.4
20260901092830 76 355 0.0 0.0 0.00 0.13 0.01 95 1017.4
20260901092331 76 355 0.0 0.0 0.00 0.13 0.01 95 1017.4
20260901091828 75 355 0.0 0.0 0.00 0.13 0.01 95 1017.4
20260901091331 76 355 0.0 0.0 0.00 0.13 0.01 95 1017.4
20260901090900 75 355 0.0 0.0 0.00 0.13 0.01 95 1017.3
20260901090340 75 355 0.0 0.0 0.00 0.13 0.01 95 1017.4
20260901085838 76 355 0.0 0.0 0.00 0.13 0.01 95 1017.4
20260901085340 75 355 0.0 0.0 0.00 0.13 0.01 95 1017.4
20260901084842 75 355 0.0 0.0 0.00 0.13 0.01 95 1017.4
20260901084342 75 355 0.0 0.0 0.00 0.13 0.01 95 1017.4
20260901083824 75 355 0.0 0.0 0.00 0.13 0.01 95 1017.4
20260901083325 75 355 0.0 0.0 0.00 0.13 0.01 95 1017.3
20260901082826 75 355 0.0 0.0 0.00 0.13 0.01 95 1017.2
20260901082328 75 355 0.0 0.0 0.00 0.13 0.01 95 1017.2
20260901081831 76 355 0.0 0.0 0.00 0.13 0.01 95 1017.3
20260901081330 75 355 0.0 0.0 0.00 0.13 0.01 95 1017.3
20260901080832 75 355 0.0 0.0 0.01 0.13 0.01 95 1017.3
20260901080337 75 355 0.0 0.0 0.01 0.13 0.01 95 1017.4
20260901075838 75 355 0.0 0.0 0.01 0.13 0.01 95 1017.4
20260901075341 75 355 0.0 1.0 0.01 0.13 0.01 95 1017.4
20260901074845 75 355 0.0 1.0 0.01 0.13 0.01 95 1017.4
20260901074348 75 355 0.0 0.0 0.01 0.13 0.01 95 1017.5
20260901073830 75 355 0.0 0.0 0.01 0.13 0.01 94 1017.4
20260901073335 75 355 0.0 0.0 0.01 0.13 0.01 94 1017.5
20260901072905 75 355 0.0 0.0 0.01 0.13 0.01 94 1017.5
20260901072348 75 355 0.0 0.0 0.01 0.13 0.01 94 1017.4
20260901071854 75 355 0.0 0.0 0.01 0.13 0.01 94 1017.4
20260901071334 75 355 0.0 0.0 0.01 0.13 0.01 94 1017.5
20260901070904 75 355 0.0 0.0 0.00 0.12 0.00 94 1017.5
20260901070345 75 355 0.0 0.0 0.00 0.12 0.00 94 1017.5
20260901065846 75 355 0.0 0.0 0.00 0.12 0.00 94 1017.6
20260901065346 75 355 0.0 0.0 0.00 0.12 0.00 94 1017.7
20260901064828 75 355 0.0 0.0 0.00 0.12 0.00 94 1017.8
20260901064358 75 355 0.0 0.0 0.00 0.12 0.00 94 1017.9
20260901063838 75 355 0.0 0.0 0.00 0.12 0.00 94 1017.9
20260901063337 75 355 0.0 0.0 0.00 0.12 0.00 94 1018.0
20260901062836 75 355 0.0 0.0 0.00 0.12 0.00 94 1018.1
20260901062402 75 355 0.0 0.0 0.00 0.12 0.00 94 1018.2
20260901061822 75 355 0.0 0.0 0.00 0.12 0.00 94 1018.2
20260901061323 75 355 0.0 0.0 0.00 0.12 0.00 94 1018.4
20260901060825 76 355 0.0 0.0 0.00 0.12 0.00 94 1018.5
20260901060328 76 355 0.0 0.0 0.00 0.12 0.00 94 1018.5
20260901055827 75 355 0.0 0.0 0.00 0.12 0.00 94 1018.6
20260901055330 75 355 0.0 0.0 0.00 0.12 0.00 94 1018.7
20260901054832 76 355 0.0 0.0 0.00 0.12 0.00 94 1018.7
20260901054335 75 355 0.0 0.0 0.00 0.12 0.00 94 1018.7
20260901053839 76 355 0.0 0.0 0.00 0.12 0.00 94 1018.7
20260901053342 75 355 0.0 0.0 0.00 0.12 0.00 94 1018.9
20260901052844 75 355 0.0 0.0 0.00 0.12 0.00 94 1018.9
20260901052327 75 355 0.0 0.0 0.00 0.12 0.00 94 1018.9
20260901051827 75 355 0.0 0.0 0.00 0.12 0.00 94 1018.9
20260901051356 75 355 0.0 0.0 0.00 0.12 0.00 94 1019.1
20260901050835 75 355 0.0 0.0 0.00 0.12 0.00 94 1019.1
20260901050337 75 355 0.0 0.0 0.00 0.12 0.00 94 1019.1
20260901045835 75 355 0.0 0.0 0.00 0.12 0.00 94 1019.1
20260901045406 75 355 0.0 0.0 0.00 0.12 0.00 94 1019.1
20260901044845 75 355 0.0 0.0 0.00 0.12 0.00 94 1019.1
20260901044346 75 355 0.0 0.0 0.00 0.12 0.00 94 1019.2
20260901043826 75 355 0.0 0.0 0.00 0.12 0.00 94 1019.2
20260901043331 75 355 0.0 0.0 0.00 0.12 0.00 94 1019.2
20260901042832 75 355 0.0 0.0 0.00 0.12 0.00 94 1019.2
20260901042330 75 355 0.0 0.0 0.00 0.12 0.00 94 1019.1
20260901041900 75 355 0.0 0.0 0.00 0.12 0.00 94 1019.2
20260901041343 75 355 0.0 0.0 0.00 0.12 0.00 94 1019.2
20260901040824 75 355 0.0 0.0 0.00 0.12 0.00 94 1019.2
20260901040335 75 355 0.0 0.0 0.00 0.12 0.00 94 1019.2
20260901035854 75 355 0.0 0.0 0.00 0.12 0.12 94 1019.2
20260901035336 75 355 0.0 0.0 0.00 0.12 0.12 94 1019.2
20260901034841 75 355 0.0 0.0 0.00 0.12 0.12 94 1019.3
20260901034345 75 355 0.0 0.0 0.00 0.12 0.12 94 1019.2
20260901033849 76 355 0.0 0.0 0.00 0.12 0.12 94 1019.2
20260901033330 76 355 0.0 0.0 0.00 0.12 0.12 94 1019.2
20260901032831 76 355 0.0 0.0 0.00 0.12 0.12 94 1019.2
20260901032335 76 355 0.0 0.0 0.00 0.12 0.12 94 1019.2
20260901031839 76 355 0.0 0.0 0.00 0.12 0.12 94 1019.2
20260901031343 76 355 0.0 0.0 0.00 0.12 0.12 94 1019.2
20260901030847 76 355 0.0 0.0 0.00 0.12 0.12 94 1019.3
20260901030337 76 355 0.0 0.0 0.00 0.12 0.12 94 1019.4